Location: Unspecified
(0.0000°N, 0.0000°E)
Time: 16:31:28
(UTC+02:00)

Ariane H10-3 - Visible Passes

Search period start: 04 September 2015 00:00
Search period end: 14 September 2015 00:00
Orbit: 248 x 20798 km, 7.3° (Epoch: 02 September)

Date Brightness Start Highest point End Pass type
(mag) Time Alt. Az. Time Alt. Az. Time Alt. Az.
04 Sep 6.8 03:51:40 53° ENE 03:51:40 53° ENE 05:07:58 10° E visible
04 Sep 3.5 21:33:13 10° WSW 21:38:57 45° SW 21:38:57 45° SW visible
05 Sep 6.6 04:09:18 62° NE 04:09:18 62° NE 06:45:23 10° E visible
05 Sep 4.6 21:53:10 10° WSW 21:56:27 27° WSW 21:56:27 27° WSW visible
06 Sep 6.5 04:26:49 68° NNE 04:26:49 68° NNE 08:01:26 10° E visible
06 Sep 5.6 22:12:37 10° WSW 22:13:51 16° WSW 22:13:51 16° WSW visible
07 Sep 6.4 04:44:13 68° NNW 04:45:37 70° N 08:44:51 10° E visible
08 Sep 6.4 05:01:32 63° NW 05:05:12 71° N 09:18:18 10° E visible
09 Sep 6.5 05:18:43 54° NW 05:24:57 73° N 09:46:57 10° E visible
10 Sep 6.6 05:35:47 46° WNW 05:44:56 75° N 10:12:44 10° E visible
11 Sep 6.8 05:52:46 38° WNW 06:05:13 76° N 10:36:37 10° E visible
12 Sep 6.9 06:09:38 31° WNW 06:25:55 78° N 10:59:07 10° E visible
13 Sep 7.1 06:26:23 24° WNW 06:47:09 79° N 11:20:36 10° E visible
